QTR33M VABB-OTHH

Flight info

Callsign QTR33M
Flight time 3h 21m
Altitude 36000
Route RAXET2A SAKUN V1 KARKU L301 RAGMA N571 MENSA DCT EGTAG Q576 RORON/N0453F340 M430 TOSNA
Aircraft A320/M-SDE3FGHIRWY/LB1

Departure

Time 2026-05-04 23:58
Airport Chhatrapati Shivaji Maharaj International Airport (VABB)

Arrival

Time 2026-05-05 03:20
Airport Hamad International Airport (OTHH)
Time Latitude Longitude Altitude Speed Heading
2026-05-04 23:25 19.09163 72.85486 28 ft 0 kts 358°
2026-05-04 23:43 19.09155 72.85486 1 ft 4 kts
2026-05-04 23:44 19.09129 72.85482 32 ft 4 kts 18°
2026-05-04 23:44 19.09108 72.85474 27 ft 1 kts 24°
2026-05-04 23:44 19.09104 72.85473 27 ft 0 kts 24°
2026-05-04 23:48 19.09105 72.85473 27 ft 0 kts 30°
2026-05-04 23:48 19.09101 72.85495 27 ft 6 kts 99°
2026-05-04 23:48 19.09092 72.85575 28 ft 15 kts 95°
2026-05-04 23:49 19.09027 72.85640 27 ft 17 kts 96°
2026-05-04 23:49 19.09029 72.85794 28 ft 24 kts 89°
2026-05-04 23:49 19.09031 72.85995 29 ft 31 kts 90°
2026-05-04 23:49 19.09032 72.86239 31 ft 35 kts 86°
2026-05-04 23:50 19.09038 72.86429 32 ft 0 kts 90°
2026-05-04 23:54 19.09037 72.86467 32 ft 18 kts 90°
2026-05-04 23:54 19.09039 72.86677 33 ft 35 kts 89°
2026-05-04 23:54 19.09044 72.86957 33 ft 42 kts 89°
2026-05-04 23:55 19.09047 72.87283 35 ft 46 kts 89°
2026-05-04 23:55 19.09054 72.87598 36 ft 41 kts 89°
2026-05-04 23:55 19.09016 72.87807 37 ft 3 kts 184°
2026-05-04 23:56 19.09001 72.87806 37 ft 1 kts 184°
2026-05-04 23:56 19.08997 72.87806 37 ft 0 kts 184°
2026-05-04 23:56 19.08994 72.87806 37 ft 4 kts 183°
2026-05-04 23:57 19.08905 72.87781 37 ft 19 kts 223°
2026-05-04 23:57 19.08884 72.87694 36 ft 0 kts 270°
2026-05-04 23:57 19.08884 72.87652 35 ft 27 kts 269°
2026-05-04 23:57 19.08874 72.87171 35 ft 101 kts 269°
2026-05-04 23:58 19.08859 72.86213 29 ft 157 kts 268°
2026-05-04 23:58 19.08810 72.84948 397 ft 175 kts 267°
2026-05-04 23:58 19.08796 72.83669 1107 ft 174 kts 268°
2026-05-04 23:58 19.08802 72.82362 1693 ft 184 kts 268°
2026-05-04 23:59 19.08791 72.80936 1939 ft 205 kts 267°
2026-05-04 23:59 19.08767 72.79347 2141 ft 229 kts 267°
2026-05-04 23:59 19.08733 72.77574 2452 ft 252 kts 267°
2026-05-04 23:59 19.08700 72.75682 3091 ft 261 kts 267°
2026-05-05 00:00 19.08674 72.73758 3885 ft 264 kts 270°
2026-05-05 00:00 19.08758 72.72471 4402 ft 266 kts 275°
2026-05-05 00:00 19.09081 72.69859 5399 ft 270 kts 277°
2026-05-05 00:00 19.09362 72.67886 6129 ft 273 kts 277°
2026-05-05 00:01 19.09635 72.65897 6810 ft 275 kts 277°
2026-05-05 00:01 19.09891 72.63876 7472 ft 279 kts 276°
2026-05-05 00:01 19.10133 72.61824 8130 ft 283 kts 276°
2026-05-05 00:01 19.10367 72.59741 8807 ft 287 kts 275°
2026-05-05 00:02 19.10598 72.57635 9520 ft 290 kts 275°
2026-05-05 00:02 19.10826 72.55510 10185 ft 292 kts 275°
2026-05-05 00:02 19.11056 72.53366 10822 ft 295 kts 275°
2026-05-05 00:02 19.11295 72.51134 11009 ft 317 kts 276°
2026-05-05 00:03 19.11551 72.48740 11141 ft 338 kts 276°
2026-05-05 00:03 19.11815 72.46264 11527 ft 348 kts 276°
2026-05-05 00:03 19.12086 72.43706 12057 ft 353 kts 277°
2026-05-05 00:03 19.12360 72.41112 12648 ft 356 kts 277°
2026-05-05 00:04 19.12636 72.38496 13227 ft 360 kts 277°
2026-05-05 00:04 19.12915 72.35854 13787 ft 363 kts 278°
2026-05-05 00:04 19.13199 72.33187 14288 ft 367 kts 278°
2026-05-05 00:04 19.13485 72.30495 14807 ft 370 kts 278°
2026-05-05 00:05 19.13773 72.27783 15329 ft 373 kts 277°
2026-05-05 00:05 19.14063 72.25050 15842 ft 375 kts 278°
2026-05-05 00:05 19.14355 72.22297 16348 ft 378 kts 278°
2026-05-05 00:05 19.14647 72.19526 16842 ft 381 kts 278°
2026-05-05 00:06 19.14940 72.16727 17337 ft 384 kts 278°
2026-05-05 00:06 19.15236 72.13907 17818 ft 387 kts 278°
2026-05-05 00:06 19.15608 72.11077 18263 ft 389 kts 284°
2026-05-05 00:06 19.16427 72.08348 18692 ft 389 kts 295°
2026-05-05 00:07 19.17658 72.05799 19139 ft 390 kts 300°
2026-05-05 00:07 19.18944 72.03269 19579 ft 391 kts 299°
2026-05-05 00:07 19.20231 72.00726 20009 ft 393 kts 299°
2026-05-05 00:07 19.21520 71.98170 20437 ft 394 kts 299°
2026-05-05 00:08 19.22810 71.95603 20872 ft 396 kts 299°
2026-05-05 00:08 19.24102 71.93030 21319 ft 396 kts 299°
2026-05-05 00:08 19.25398 71.90450 21751 ft 398 kts 299°
2026-05-05 00:08 19.26696 71.87864 22144 ft 399 kts 299°
2026-05-05 00:09 19.28002 71.85261 22543 ft 401 kts 299°
2026-05-05 00:09 19.29315 71.82646 22923 ft 403 kts 299°
2026-05-05 00:09 19.30631 71.80023 23313 ft 404 kts 299°
2026-05-05 00:09 19.31953 71.77389 23641 ft 406 kts 299°
2026-05-05 00:10 19.33280 71.74747 23937 ft 408 kts 299°
2026-05-05 00:10 19.34613 71.72091 24231 ft 409 kts 299°
2026-05-05 00:10 19.35953 71.69424 24522 ft 411 kts 299°
2026-05-05 00:10 19.37296 71.66749 24802 ft 413 kts 299°
2026-05-05 00:11 19.38648 71.64053 25087 ft 415 kts 298°
2026-05-05 00:11 19.40001 71.61348 25357 ft 416 kts 298°
2026-05-05 00:11 19.41356 71.58635 25626 ft 418 kts 298°
2026-05-05 00:11 19.42717 71.55905 25889 ft 420 kts 298°
2026-05-05 00:12 19.44086 71.53162 26134 ft 422 kts 298°
2026-05-05 00:12 19.45461 71.50405 26386 ft 424 kts 298°
2026-05-05 00:12 19.46840 71.47636 26637 ft 426 kts 298°
2026-05-05 00:12 19.48226 71.44858 26874 ft 427 kts 298°
2026-05-05 00:13 19.49618 71.42073 27139 ft 429 kts 298°
2026-05-05 00:13 19.51015 71.39276 27413 ft 430 kts 298°
2026-05-05 00:13 19.52416 71.36471 27669 ft 431 kts 298°
2026-05-05 00:13 19.53820 71.33654 27900 ft 433 kts 298°
2026-05-05 00:14 19.55228 71.30825 28144 ft 435 kts 298°
2026-05-05 00:14 19.56639 71.27983 28370 ft 436 kts 298°
2026-05-05 00:14 19.58055 71.25131 28589 ft 438 kts 298°
2026-05-05 00:14 19.59473 71.22267 28805 ft 439 kts 298°
2026-05-05 00:15 19.60812 71.19355 29010 ft 441 kts 292°
2026-05-05 00:15 19.61829 71.16280 29208 ft 443 kts 289°
2026-05-05 00:15 19.62801 71.13176 29402 ft 444 kts 289°
2026-05-05 00:15 19.63775 71.10061 29596 ft 446 kts 289°
2026-05-05 00:16 19.64752 71.06935 29794 ft 447 kts 289°
2026-05-05 00:16 19.65733 71.03799 29969 ft 449 kts 289°
2026-05-05 00:16 19.66717 71.00652 30133 ft 450 kts 289°
2026-05-05 00:16 19.67701 70.97497 30299 ft 451 kts 289°
2026-05-05 00:17 19.68671 70.94383 30536 ft 450 kts 289°
2026-05-05 00:17 19.69649 70.91233 30794 ft 449 kts 288°
2026-05-05 00:17 19.70622 70.88096 31030 ft 448 kts 288°
2026-05-05 00:17 19.71596 70.84957 31267 ft 447 kts 288°
2026-05-05 00:18 19.72569 70.81823 31513 ft 447 kts 289°
2026-05-05 00:18 19.73544 70.78695 31748 ft 446 kts 289°
2026-05-05 00:18 19.74516 70.75572 32021 ft 445 kts 289°
2026-05-05 00:18 19.75484 70.72464 32335 ft 442 kts 289°
2026-05-05 00:19 19.76446 70.69370 32621 ft 441 kts 288°
2026-05-05 00:19 19.77404 70.66285 32902 ft 439 kts 288°
2026-05-05 00:19 19.78357 70.63207 33167 ft 438 kts 288°
2026-05-05 00:19 19.79306 70.60135 33422 ft 437 kts 288°
2026-05-05 00:20 19.80253 70.57068 33682 ft 437 kts 288°
2026-05-05 00:20 19.81199 70.54009 33936 ft 436 kts 288°
2026-05-05 00:20 19.82141 70.50955 34151 ft 435 kts 288°
2026-05-05 00:20 19.83081 70.47906 34364 ft 434 kts 288°
2026-05-05 00:21 19.84013 70.44868 34580 ft 433 kts 288°
2026-05-05 00:21 19.84945 70.41829 34788 ft 432 kts 288°
2026-05-05 00:21 19.85886 70.38798 34985 ft 432 kts 290°
2026-05-05 00:21 19.87119 70.35899 35175 ft 431 kts 299°
2026-05-05 00:22 19.88796 70.33265 35350 ft 431 kts 308°
2026-05-05 00:22 19.90829 70.30918 35525 ft 432 kts 313°
2026-05-05 00:22 19.92912 70.28621 35695 ft 431 kts 312°
2026-05-05 00:22 19.94988 70.26319 35810 ft 431 kts 312°
2026-05-05 00:23 19.97053 70.24013 35851 ft 430 kts 312°
2026-05-05 00:23 20.01167 70.19412 35835 ft 429 kts 312°
2026-05-05 00:24 20.05280 70.14822 35844 ft 429 kts 312°
2026-05-05 00:24 20.09400 70.10236 35840 ft 429 kts 312°
2026-05-05 00:25 20.13518 70.05644 35840 ft 429 kts 312°
2026-05-05 00:25 20.17631 70.01037 35855 ft 429 kts 312°
2026-05-05 00:26 20.21744 69.96432 35851 ft 429 kts 312°
2026-05-05 00:26 20.25832 69.91852 35849 ft 429 kts 312°
2026-05-05 00:27 20.29945 69.87244 35860 ft 429 kts 311°
2026-05-05 00:27 20.34053 69.82643 35854 ft 428 kts 311°
2026-05-05 00:28 20.38158 69.78042 35841 ft 428 kts 311°
2026-05-05 00:28 20.42263 69.73438 35841 ft 428 kts 311°
2026-05-05 00:29 20.46362 69.68836 35838 ft 428 kts 311°
2026-05-05 00:29 20.50463 69.64226 35840 ft 428 kts 311°
2026-05-05 00:30 20.54563 69.59613 35850 ft 428 kts 311°
2026-05-05 00:30 20.58660 69.54995 35850 ft 428 kts 311°
2026-05-05 00:31 20.62753 69.50379 35845 ft 428 kts 311°
2026-05-05 00:31 20.66839 69.45761 35840 ft 428 kts 311°
2026-05-05 00:32 20.70920 69.41147 35844 ft 428 kts 311°
2026-05-05 00:32 20.75005 69.36529 35840 ft 428 kts 311°
2026-05-05 00:33 20.79089 69.31912 35843 ft 427 kts 311°
2026-05-05 00:33 20.83171 69.27297 35838 ft 427 kts 311°
2026-05-05 00:34 20.87250 69.22679 35836 ft 427 kts 311°
2026-05-05 00:34 20.91323 69.18055 35828 ft 427 kts 311°
2026-05-05 00:35 20.95390 69.13421 35824 ft 427 kts 311°
2026-05-05 00:35 20.98234 69.09152 35822 ft 424 kts 296°
2026-05-05 00:36 21.01059 69.02462 35826 ft 424 kts 293°
2026-05-05 00:36 21.03079 68.97635 35820 ft 425 kts 293°
2026-05-05 00:37 21.05495 68.91865 35826 ft 425 kts 293°
2026-05-05 00:37 21.07904 68.86091 35823 ft 425 kts 293°
2026-05-05 00:38 21.10308 68.80312 35831 ft 425 kts 293°
2026-05-05 00:38 21.12694 68.74572 35835 ft 424 kts 293°
2026-05-05 00:39 21.15092 68.68803 35833 ft 424 kts 293°
2026-05-05 00:39 21.17494 68.63029 35832 ft 424 kts 293°
2026-05-05 00:40 21.19892 68.57253 35827 ft 424 kts 293°
2026-05-05 00:40 21.22284 68.51471 35826 ft 424 kts 293°
2026-05-05 00:41 21.24680 68.45685 35823 ft 425 kts 293°
2026-05-05 00:41 21.27071 68.39894 35823 ft 425 kts 293°
2026-05-05 00:42 21.29458 68.34102 35825 ft 425 kts 293°
2026-05-05 00:42 21.31847 68.28317 35827 ft 425 kts 293°
2026-05-05 00:43 21.34238 68.22513 35829 ft 425 kts 293°
2026-05-05 00:43 21.36623 68.16718 35823 ft 425 kts 293°
2026-05-05 00:44 21.39005 68.10915 35820 ft 425 kts 293°
2026-05-05 00:44 21.41383 68.05111 35821 ft 425 kts 293°
2026-05-05 00:45 21.43771 67.99295 35824 ft 426 kts 293°
2026-05-05 00:45 21.46156 67.93474 35822 ft 426 kts 293°
2026-05-05 00:46 21.48539 67.87646 35827 ft 426 kts 293°
2026-05-05 00:46 21.50919 67.81822 35830 ft 426 kts 293°
2026-05-05 00:47 21.53297 67.75993 35827 ft 426 kts 293°
2026-05-05 00:47 21.55664 67.70202 35840 ft 426 kts 293°
2026-05-05 00:48 21.58049 67.64340 35838 ft 426 kts 293°
2026-05-05 00:48 21.60421 67.58517 35834 ft 425 kts 293°
2026-05-05 00:49 21.62775 67.52734 35826 ft 425 kts 293°
2026-05-05 00:49 21.65136 67.46909 35820 ft 425 kts 293°
2026-05-05 00:50 21.67495 67.41079 35820 ft 425 kts 293°
2026-05-05 00:50 21.69856 67.35249 35819 ft 425 kts 293°
2026-05-05 00:51 21.72211 67.29409 35827 ft 426 kts 293°
2026-05-05 00:51 21.74570 67.23567 35820 ft 426 kts 293°
2026-05-05 00:52 21.76937 67.17725 35816 ft 426 kts 293°
2026-05-05 00:52 21.79295 67.11874 35829 ft 426 kts 292°
2026-05-05 00:53 21.81638 67.06023 35826 ft 426 kts 292°
2026-05-05 00:53 21.83969 67.00205 35825 ft 426 kts 293°
2026-05-05 00:54 21.86319 66.94350 35828 ft 426 kts 292°
2026-05-05 00:54 21.88666 66.88495 35818 ft 426 kts 292°
2026-05-05 00:55 21.91013 66.82640 35821 ft 426 kts 292°
2026-05-05 00:55 21.93356 66.76781 35817 ft 426 kts 292°
2026-05-05 00:56 21.95700 66.70920 35818 ft 426 kts 292°
2026-05-05 00:56 21.98035 66.65063 35817 ft 426 kts 292°
2026-05-05 00:57 22.00375 66.59202 35824 ft 426 kts 292°
2026-05-05 00:57 22.02709 66.53340 35816 ft 425 kts 292°
2026-05-05 00:58 22.05034 66.47471 35816 ft 426 kts 292°
2026-05-05 00:58 22.07368 66.41599 35815 ft 426 kts 292°
2026-05-05 00:59 22.09699 66.35724 35816 ft 426 kts 292°
2026-05-05 00:59 22.12024 66.29844 35815 ft 426 kts 292°
2026-05-05 01:00 22.14351 66.23972 35814 ft 426 kts 292°
2026-05-05 01:00 22.16680 66.18088 35814 ft 426 kts 292°
2026-05-05 01:01 22.19007 66.12201 35816 ft 427 kts 292°
2026-05-05 01:01 22.21333 66.06310 35831 ft 427 kts 292°
2026-05-05 01:02 22.23630 66.00456 35826 ft 426 kts 292°
2026-05-05 01:02 22.25940 65.94567 35822 ft 426 kts 292°
2026-05-05 01:03 22.28256 65.88682 35816 ft 426 kts 292°
2026-05-05 01:03 22.30567 65.82799 35819 ft 426 kts 292°
2026-05-05 01:04 22.32875 65.76903 35820 ft 426 kts 292°
2026-05-05 01:04 22.36334 65.68055 35818 ft 426 kts 292°
2026-05-05 01:05 22.38646 65.62159 35815 ft 426 kts 292°
2026-05-05 01:05 22.40944 65.56257 35809 ft 426 kts 292°
2026-05-05 01:06 22.43238 65.50347 35821 ft 426 kts 292°
2026-05-05 01:06 22.45533 65.44435 35825 ft 426 kts 292°
2026-05-05 01:07 22.47829 65.38532 35825 ft 426 kts 292°
2026-05-05 01:07 22.50129 65.32625 35821 ft 426 kts 292°
2026-05-05 01:08 22.52421 65.26717 35817 ft 426 kts 292°
2026-05-05 01:08 22.54709 65.20809 35814 ft 426 kts 292°
2026-05-05 01:09 22.56993 65.14901 35813 ft 425 kts 292°
2026-05-05 01:09 22.59268 65.08991 35810 ft 425 kts 292°
2026-05-05 01:10 22.61545 65.03078 35811 ft 426 kts 292°
2026-05-05 01:10 22.63818 64.97166 35819 ft 426 kts 292°
2026-05-05 01:11 22.66083 64.91288 35821 ft 426 kts 292°
2026-05-05 01:11 22.68361 64.85371 35817 ft 426 kts 292°
2026-05-05 01:12 22.70633 64.79450 35822 ft 426 kts 292°
2026-05-05 01:12 22.72896 64.73525 35820 ft 426 kts 292°
2026-05-05 01:13 22.75156 64.67600 35822 ft 425 kts 292°
2026-05-05 01:13 22.77423 64.61688 35825 ft 425 kts 292°
2026-05-05 01:14 22.79689 64.55769 35821 ft 425 kts 292°
2026-05-05 01:14 22.81942 64.49846 35818 ft 425 kts 291°
2026-05-05 01:15 22.84196 64.43926 35834 ft 425 kts 291°
2026-05-05 01:15 22.86448 64.38010 35835 ft 424 kts 291°
2026-05-05 01:16 22.88691 64.32102 35825 ft 423 kts 291°
2026-05-05 01:16 22.90931 64.26200 35824 ft 423 kts 291°
2026-05-05 01:17 22.93169 64.20302 35820 ft 423 kts 291°
2026-05-05 01:17 22.95395 64.14399 35819 ft 423 kts 291°
2026-05-05 01:18 22.97615 64.08498 35816 ft 423 kts 291°
2026-05-05 01:18 22.99846 64.02591 35808 ft 423 kts 291°
2026-05-05 01:19 23.02065 63.96716 35805 ft 424 kts 291°
2026-05-05 01:19 23.04293 63.90787 35806 ft 424 kts 291°
2026-05-05 01:20 23.06039 63.84690 35815 ft 424 kts 277°
2026-05-05 01:20 23.06705 63.78339 35816 ft 424 kts 277°
2026-05-05 01:21 23.07377 63.71980 35813 ft 424 kts 276°
2026-05-05 01:21 23.08042 63.65618 35812 ft 424 kts 276°
2026-05-05 01:22 23.08696 63.59258 35815 ft 424 kts 276°
2026-05-05 01:22 23.09345 63.52896 35812 ft 424 kts 276°
2026-05-05 01:23 23.09990 63.46533 35810 ft 424 kts 276°
2026-05-05 01:23 23.10640 63.40170 35807 ft 424 kts 276°
2026-05-05 01:24 23.11294 63.33801 35808 ft 424 kts 276°
2026-05-05 01:24 23.11940 63.27428 35808 ft 424 kts 276°
2026-05-05 01:25 23.12472 63.22131 35814 ft 425 kts 276°
2026-05-05 01:25 23.13112 63.15748 35818 ft 425 kts 276°
2026-05-05 01:26 23.13755 63.09364 35814 ft 425 kts 276°
2026-05-05 01:26 23.14397 63.02979 35817 ft 425 kts 276°
2026-05-05 01:27 23.15023 62.96587 35824 ft 426 kts 276°
2026-05-05 01:27 23.15656 62.90193 35828 ft 425 kts 276°
2026-05-05 01:28 23.16289 62.83808 35824 ft 425 kts 276°
2026-05-05 01:28 23.16915 62.77417 35827 ft 425 kts 276°
2026-05-05 01:29 23.17539 62.71027 35824 ft 425 kts 276°
2026-05-05 01:29 23.18162 62.64638 35824 ft 425 kts 276°
2026-05-05 01:30 23.18784 62.58248 35826 ft 425 kts 276°
2026-05-05 01:30 23.19406 62.51856 35823 ft 425 kts 276°
2026-05-05 01:31 23.20016 62.45499 35823 ft 426 kts 276°
2026-05-05 01:31 23.20626 62.39100 35822 ft 426 kts 276°
2026-05-05 01:32 23.21234 62.32691 35824 ft 426 kts 276°
2026-05-05 01:32 23.21844 62.26284 35823 ft 426 kts 276°
2026-05-05 01:33 23.22446 62.19877 35816 ft 426 kts 276°
2026-05-05 01:33 23.23045 62.13465 35820 ft 426 kts 276°
2026-05-05 01:34 23.23652 62.07047 35825 ft 427 kts 276°
2026-05-05 01:34 23.24253 62.00628 35821 ft 427 kts 276°
2026-05-05 01:35 23.24841 61.94212 35825 ft 426 kts 276°
2026-05-05 01:35 23.25430 61.87811 35825 ft 426 kts 276°
2026-05-05 01:36 23.26016 61.81412 35827 ft 425 kts 276°
2026-05-05 01:36 23.26599 61.75018 35820 ft 425 kts 276°
2026-05-05 01:37 23.27180 61.68628 35817 ft 424 kts 276°
2026-05-05 01:37 23.27770 61.62242 35817 ft 424 kts 276°
2026-05-05 01:38 23.28344 61.55857 35811 ft 424 kts 276°
2026-05-05 01:38 23.28909 61.49472 35813 ft 424 kts 276°
2026-05-05 01:39 23.29477 61.43096 35808 ft 424 kts 276°
2026-05-05 01:39 23.30047 61.36714 35810 ft 424 kts 276°
2026-05-05 01:40 23.30616 61.30376 35803 ft 424 kts 276°
2026-05-05 01:40 23.31178 61.23994 35801 ft 424 kts 276°
2026-05-05 01:41 23.31735 61.17610 35798 ft 424 kts 276°
2026-05-05 01:41 23.32475 61.11249 35797 ft 424 kts 278°
2026-05-05 01:42 23.33334 61.04913 35796 ft 424 kts 278°
2026-05-05 01:42 23.34173 60.98559 35799 ft 424 kts 278°
2026-05-05 01:43 23.34961 60.92217 35808 ft 423 kts 278°
2026-05-05 01:43 23.35738 60.85876 35807 ft 422 kts 278°
2026-05-05 01:44 23.36522 60.79545 35807 ft 422 kts 278°
2026-05-05 01:44 23.37304 60.73227 35800 ft 422 kts 278°
2026-05-05 01:45 23.38086 60.66902 35799 ft 422 kts 278°
2026-05-05 01:45 23.39752 60.60854 35792 ft 421 kts 291°
2026-05-05 01:46 23.41933 60.54928 35787 ft 422 kts 291°
2026-05-05 01:46 23.44092 60.48990 35786 ft 422 kts 291°
2026-05-05 01:47 23.46249 60.43046 35786 ft 422 kts 291°
2026-05-05 01:47 23.48418 60.37111 35784 ft 422 kts 291°
2026-05-05 01:48 23.50591 60.31165 35796 ft 422 kts 291°
2026-05-05 01:48 23.52754 60.25224 35795 ft 422 kts 291°
2026-05-05 01:49 23.54913 60.19288 35800 ft 421 kts 291°
2026-05-05 01:49 23.57066 60.13354 35787 ft 421 kts 290°
2026-05-05 01:50 23.59216 60.07429 35787 ft 421 kts 290°
2026-05-05 01:50 23.61361 60.01495 35785 ft 420 kts 290°
2026-05-05 01:51 23.63501 59.95560 35781 ft 420 kts 290°
2026-05-05 01:51 23.65644 59.89624 35779 ft 421 kts 290°
2026-05-05 01:52 23.67787 59.83682 35788 ft 421 kts 290°
2026-05-05 01:52 23.69924 59.77734 35788 ft 421 kts 290°
2026-05-05 01:53 23.72062 59.71791 35792 ft 421 kts 290°
2026-05-05 01:53 23.74191 59.65852 35789 ft 420 kts 290°
2026-05-05 01:54 23.76319 59.59901 35782 ft 420 kts 290°
2026-05-05 01:54 23.78441 59.53965 35779 ft 420 kts 290°
2026-05-05 01:55 23.80567 59.48021 35779 ft 420 kts 290°
2026-05-05 01:55 23.82690 59.42072 35777 ft 420 kts 290°
2026-05-05 01:56 23.84809 59.36119 35782 ft 420 kts 290°
2026-05-05 01:56 23.86915 59.30206 35784 ft 420 kts 290°
2026-05-05 01:57 23.89032 59.24265 35789 ft 420 kts 290°
2026-05-05 01:57 23.91145 59.18316 35788 ft 420 kts 290°
2026-05-05 01:58 23.93272 59.12371 35783 ft 420 kts 291°
2026-05-05 01:58 23.95686 59.06548 35784 ft 421 kts 294°
2026-05-05 01:59 23.98250 59.00798 35781 ft 421 kts 294°
2026-05-05 01:59 24.00781 58.95026 35780 ft 421 kts 293°
2026-05-05 02:00 24.03260 58.89222 35794 ft 421 kts 293°
2026-05-05 02:00 24.05719 58.83428 35796 ft 420 kts 293°
2026-05-05 02:01 24.08179 58.77638 35798 ft 419 kts 293°
2026-05-05 02:01 24.10637 58.71854 35794 ft 419 kts 293°
2026-05-05 02:02 24.13088 58.66070 35791 ft 419 kts 293°
2026-05-05 02:02 24.15542 58.60292 35791 ft 418 kts 293°
2026-05-05 02:03 24.17997 58.54515 35786 ft 418 kts 293°
2026-05-05 02:03 24.20444 58.48735 35797 ft 418 kts 293°
2026-05-05 02:04 24.22884 58.42961 35798 ft 418 kts 292°
2026-05-05 02:04 24.25300 58.37224 35796 ft 417 kts 292°
2026-05-05 02:05 24.27734 58.31452 35796 ft 417 kts 292°
2026-05-05 02:05 24.30166 58.25689 35796 ft 417 kts 292°
2026-05-05 02:06 24.32600 58.19921 35792 ft 417 kts 292°
2026-05-05 02:06 24.35031 58.14152 35792 ft 417 kts 292°
2026-05-05 02:07 24.37456 58.08378 35803 ft 417 kts 292°
2026-05-05 02:07 24.39864 58.02605 35798 ft 416 kts 292°
2026-05-05 02:08 24.42276 57.96847 35797 ft 415 kts 292°
2026-05-05 02:08 24.44679 57.91104 35784 ft 414 kts 292°
2026-05-05 02:09 24.47083 57.85355 35780 ft 414 kts 292°
2026-05-05 02:09 24.49480 57.79600 35778 ft 414 kts 292°
2026-05-05 02:10 24.51808 57.73812 35777 ft 414 kts 290°
2026-05-05 02:10 24.54004 57.67961 35784 ft 414 kts 290°
2026-05-05 02:11 24.56181 57.62101 35778 ft 414 kts 290°
2026-05-05 02:11 24.58384 57.56252 35772 ft 414 kts 290°
2026-05-05 02:12 24.61705 57.47485 35774 ft 415 kts 290°
2026-05-05 02:13 24.63925 57.41631 35776 ft 415 kts 290°
2026-05-05 02:13 24.66120 57.35810 35772 ft 415 kts 290°
2026-05-05 02:14 24.68326 57.29945 35768 ft 415 kts 290°
2026-05-05 02:14 24.70534 57.24082 35780 ft 415 kts 290°
2026-05-05 02:15 24.72737 57.18223 35786 ft 414 kts 290°
2026-05-05 02:15 24.74930 57.12374 35785 ft 414 kts 290°
2026-05-05 02:16 24.76765 57.07466 35779 ft 414 kts 290°
2026-05-05 02:16 24.78940 57.01649 35777 ft 414 kts 290°
2026-05-05 02:17 24.81129 56.95787 35779 ft 414 kts 290°
2026-05-05 02:17 24.83332 56.89885 35781 ft 414 kts 290°
2026-05-05 02:18 24.85513 56.84027 35784 ft 414 kts 290°
2026-05-05 02:18 24.87675 56.78203 35786 ft 413 kts 289°
2026-05-05 02:19 24.89849 56.72346 35784 ft 413 kts 289°
2026-05-05 02:19 24.92024 56.66496 35781 ft 412 kts 289°
2026-05-05 02:20 24.94190 56.60645 35782 ft 412 kts 289°
2026-05-05 02:20 24.96246 56.54756 35768 ft 410 kts 283°
2026-05-05 02:21 24.97141 56.48576 35763 ft 408 kts 276°
2026-05-05 02:21 24.97880 56.42373 35756 ft 409 kts 276°
2026-05-05 02:22 24.98631 56.36162 35754 ft 409 kts 276°
2026-05-05 02:22 24.99374 56.29952 35766 ft 408 kts 276°
2026-05-05 02:23 25.00112 56.23750 35789 ft 407 kts 276°
2026-05-05 02:23 25.00848 56.17560 35789 ft 407 kts 276°
2026-05-05 02:24 25.01586 56.11373 35785 ft 407 kts 276°
2026-05-05 02:24 25.02316 56.05193 35785 ft 406 kts 276°
2026-05-05 02:25 25.03042 55.99015 35788 ft 406 kts 276°
2026-05-05 02:25 25.03761 55.92838 35784 ft 406 kts 276°
2026-05-05 02:26 25.04481 55.86670 35791 ft 406 kts 276°
2026-05-05 02:26 25.05195 55.80538 35787 ft 406 kts 276°
2026-05-05 02:27 25.05914 55.74363 35767 ft 406 kts 276°
2026-05-05 02:27 25.06628 55.68188 35768 ft 406 kts 276°
2026-05-05 02:28 25.07337 55.62008 35781 ft 406 kts 276°
2026-05-05 02:28 25.08041 55.55828 35779 ft 406 kts 276°
2026-05-05 02:29 25.08747 55.49657 35771 ft 405 kts 276°
2026-05-05 02:29 25.09445 55.43489 35774 ft 405 kts 276°
2026-05-05 02:30 25.10138 55.37320 35765 ft 405 kts 276°
2026-05-05 02:30 25.10839 55.31153 35783 ft 405 kts 276°
2026-05-05 02:31 25.11530 55.24992 35778 ft 405 kts 276°
2026-05-05 02:31 25.12220 55.18827 35773 ft 405 kts 275°
2026-05-05 02:32 25.12908 55.12661 35775 ft 405 kts 276°
2026-05-05 02:32 25.13595 55.06495 35789 ft 405 kts 275°
2026-05-05 02:33 25.14279 55.00324 35785 ft 405 kts 275°
2026-05-05 02:33 25.14780 54.94139 35797 ft 404 kts 267°
2026-05-05 02:34 25.14175 54.87988 35794 ft 403 kts 263°
2026-05-05 02:34 25.13521 54.81847 35792 ft 403 kts 263°
2026-05-05 02:35 25.12870 54.75717 35790 ft 402 kts 263°
2026-05-05 02:35 25.12212 54.69629 35788 ft 402 kts 263°
2026-05-05 02:36 25.11556 54.63504 35788 ft 402 kts 263°
2026-05-05 02:36 25.10904 54.57379 35787 ft 402 kts 263°
2026-05-05 02:37 25.10407 54.51241 35783 ft 402 kts 271°
2026-05-05 02:37 25.11156 54.45119 35784 ft 404 kts 277°
2026-05-05 02:38 25.12061 54.38994 35778 ft 405 kts 277°
2026-05-05 02:38 25.12959 54.32863 35790 ft 405 kts 277°
2026-05-05 02:39 25.13851 54.26724 35791 ft 405 kts 277°
2026-05-05 02:39 25.14739 54.20593 35782 ft 405 kts 277°
2026-05-05 02:40 25.15626 54.14460 35784 ft 405 kts 277°
2026-05-05 02:40 25.16509 54.08326 35792 ft 404 kts 277°
2026-05-05 02:41 25.17391 54.02195 35790 ft 404 kts 277°
2026-05-05 02:41 25.18277 53.96087 35789 ft 403 kts 277°
2026-05-05 02:42 25.19155 53.89978 35786 ft 403 kts 277°
2026-05-05 02:42 25.20026 53.83872 35783 ft 403 kts 277°
2026-05-05 02:43 25.20953 53.77776 35787 ft 403 kts 281°
2026-05-05 02:43 25.22306 53.71762 35781 ft 404 kts 281°
2026-05-05 02:44 25.23650 53.65750 35777 ft 403 kts 281°
2026-05-05 02:44 25.24993 53.59739 35778 ft 403 kts 281°
2026-05-05 02:45 25.26338 53.53727 35784 ft 403 kts 281°
2026-05-05 02:45 25.27670 53.47759 35778 ft 402 kts 281°
2026-05-05 02:46 25.28997 53.41760 35775 ft 402 kts 281°
2026-05-05 02:46 25.30328 53.35727 35775 ft 401 kts 281°
2026-05-05 02:47 25.31652 53.29743 35772 ft 401 kts 281°
2026-05-05 02:47 25.32969 53.23793 35770 ft 401 kts 281°
2026-05-05 02:48 25.34257 53.17796 35773 ft 400 kts 277°
2026-05-05 02:48 25.34192 53.11717 35758 ft 396 kts 259°
2026-05-05 02:49 25.33184 53.05720 35757 ft 397 kts 259°
2026-05-05 02:49 25.32186 52.99711 35758 ft 398 kts 259°
2026-05-05 02:50 25.31195 52.93693 35772 ft 398 kts 259°
2026-05-05 02:50 25.30197 52.87679 35761 ft 398 kts 259°
2026-05-05 02:51 25.29187 52.81669 35774 ft 398 kts 259°
2026-05-05 02:51 25.28171 52.75666 35770 ft 398 kts 259°
2026-05-05 02:52 25.27417 52.69627 35778 ft 397 kts 270°
2026-05-05 02:52 25.28450 52.63626 35777 ft 401 kts 284°
2026-05-05 02:53 25.30124 52.57749 35768 ft 401 kts 284°
2026-05-05 02:53 25.32547 52.52149 35520 ft 408 kts 295°
2026-05-05 02:53 25.33948 52.49372 34343 ft 421 kts 295°
2026-05-05 02:54 25.35381 52.46509 33411 ft 427 kts 295°
2026-05-05 02:54 25.36819 52.43629 32633 ft 428 kts 295°
2026-05-05 02:54 25.38253 52.40758 31968 ft 425 kts 295°
2026-05-05 02:54 25.39675 52.37929 31192 ft 416 kts 295°
2026-05-05 02:55 25.41062 52.35185 30627 ft 401 kts 295°
2026-05-05 02:55 25.42399 52.32537 30095 ft 388 kts 295°
2026-05-05 02:55 25.43687 52.29973 29536 ft 376 kts 295°
2026-05-05 02:55 25.44943 52.27455 29011 ft 373 kts 295°
2026-05-05 02:56 25.46187 52.24953 28517 ft 369 kts 295°
2026-05-05 02:56 25.47419 52.22474 28028 ft 366 kts 295°
2026-05-05 02:56 25.48641 52.20016 27553 ft 363 kts 295°
2026-05-05 02:56 25.49839 52.17611 27090 ft 360 kts 295°
2026-05-05 02:57 25.51046 52.15194 26632 ft 357 kts 296°
2026-05-05 02:57 25.52243 52.12795 26186 ft 355 kts 296°
2026-05-05 02:57 25.53433 52.10413 25730 ft 353 kts 296°
2026-05-05 02:57 25.54617 52.08043 25272 ft 351 kts 296°
2026-05-05 02:58 25.55797 52.05675 24777 ft 351 kts 296°
2026-05-05 02:58 25.56972 52.03312 24291 ft 351 kts 297°
2026-05-05 02:58 25.58152 52.00942 23784 ft 352 kts 297°
2026-05-05 02:58 25.59294 51.98540 23256 ft 352 kts 290°
2026-05-05 02:59 25.59857 51.95920 22688 ft 350 kts 272°
2026-05-05 02:59 25.59612 51.93254 22170 ft 349 kts 254°
2026-05-05 02:59 25.58599 51.90818 21644 ft 351 kts 236°
2026-05-05 02:59 25.56925 51.88849 21103 ft 353 kts 223°
2026-05-05 03:00 25.55059 51.87076 20586 ft 354 kts 222°
2026-05-05 03:00 25.53186 51.85298 20055 ft 355 kts 223°
2026-05-05 03:00 25.51368 51.83448 19526 ft 355 kts 230°
2026-05-05 03:00 25.49969 51.81216 19014 ft 353 kts 244°
2026-05-05 03:01 25.49111 51.78687 18524 ft 351 kts 258°
2026-05-05 03:01 25.48814 51.76011 18030 ft 351 kts 268°
2026-05-05 03:01 25.48693 51.73317 17500 ft 351 kts 268°
2026-05-05 03:01 25.48563 51.70629 17020 ft 349 kts 268°
2026-05-05 03:02 25.48430 51.67957 16549 ft 347 kts 268°
2026-05-05 03:02 25.48297 51.65298 16079 ft 345 kts 268°
2026-05-05 03:02 25.48165 51.62650 15618 ft 344 kts 269°
2026-05-05 03:02 25.48080 51.60908 15308 ft 343 kts 269°
2026-05-05 03:03 25.47954 51.58287 14936 ft 339 kts 269°
2026-05-05 03:03 25.47831 51.55682 14490 ft 337 kts 269°
2026-05-05 03:03 25.47707 51.53093 14049 ft 336 kts 270°
2026-05-05 03:03 25.47582 51.50525 13589 ft 335 kts 270°
2026-05-05 03:04 25.47456 51.47977 13251 ft 329 kts 270°
2026-05-05 03:04 25.47318 51.45452 12762 ft 329 kts 267°
2026-05-05 03:04 25.46637 51.43030 12301 ft 336 kts 244°
2026-05-05 03:04 25.45066 51.41110 11841 ft 345 kts 218°
2026-05-05 03:05 25.42834 51.40114 11455 ft 351 kts 190°
2026-05-05 03:05 25.40435 51.40302 11332 ft 345 kts 165°
2026-05-05 03:05 25.38216 51.41210 11215 ft 335 kts 160°
2026-05-05 03:05 25.36082 51.42147 11090 ft 325 kts 159°
2026-05-05 03:06 25.34016 51.43069 10965 ft 316 kts 159°
2026-05-05 03:06 25.32014 51.43968 10646 ft 307 kts 159°
2026-05-05 03:06 25.30049 51.44846 10159 ft 304 kts 159°
2026-05-05 03:06 25.28097 51.45714 9649 ft 301 kts 159°
2026-05-05 03:07 25.26158 51.46571 9099 ft 299 kts 159°
2026-05-05 03:07 25.24237 51.47417 8558 ft 296 kts 159°
2026-05-05 03:07 25.22329 51.48256 8160 ft 294 kts 158°
2026-05-05 03:07 25.20435 51.49091 7797 ft 294 kts 158°
2026-05-05 03:08 25.18552 51.49923 7502 ft 290 kts 158°
2026-05-05 03:08 25.16675 51.50753 7158 ft 289 kts 157°
2026-05-05 03:08 25.14820 51.51573 6839 ft 286 kts 157°
2026-05-05 03:08 25.12974 51.52386 6497 ft 285 kts 157°
2026-05-05 03:09 25.11140 51.53194 6165 ft 283 kts 156°
2026-05-05 03:09 25.09317 51.53997 5821 ft 281 kts 156°
2026-05-05 03:09 25.07510 51.54793 5482 ft 278 kts 156°
2026-05-05 03:09 25.05718 51.55582 5152 ft 276 kts 156°
2026-05-05 03:10 25.03953 51.56361 4916 ft 268 kts 156°
2026-05-05 03:10 25.02247 51.57115 4688 ft 262 kts 156°
2026-05-05 03:10 25.00567 51.57852 4253 ft 258 kts 156°
2026-05-05 03:10 24.98900 51.58578 3735 ft 257 kts 156°
2026-05-05 03:11 24.97266 51.59283 3548 ft 250 kts 157°
2026-05-05 03:11 24.95666 51.59970 3509 ft 251 kts 157°
2026-05-05 03:11 24.94120 51.60831 3516 ft 249 kts 139°
2026-05-05 03:11 24.93031 51.62272 3520 ft 243 kts 113°
2026-05-05 03:12 24.92620 51.64040 3516 ft 238 kts 88°
2026-05-05 03:12 24.92917 51.65799 3517 ft 233 kts 64°
2026-05-05 03:12 24.93832 51.67242 3517 ft 230 kts 40°
2026-05-05 03:12 24.95187 51.68145 3516 ft 229 kts 18°
2026-05-05 03:13 24.96718 51.68648 3520 ft 230 kts 16°
2026-05-05 03:13 24.98255 51.69141 3518 ft 230 kts 16°
2026-05-05 03:13 24.99790 51.69634 3516 ft 230 kts 16°
2026-05-05 03:13 25.01327 51.70123 3515 ft 230 kts 14°
2026-05-05 03:14 25.02913 51.70276 3510 ft 230 kts 355°
2026-05-05 03:14 25.04430 51.69836 3503 ft 220 kts 339°
2026-05-05 03:14 25.05797 51.69220 3502 ft 205 kts 340°
2026-05-05 03:14 25.07098 51.68645 3496 ft 200 kts 340°
2026-05-05 03:15 25.08392 51.68080 3342 ft 200 kts 340°
2026-05-05 03:15 25.09672 51.67519 3147 ft 195 kts 340°
2026-05-05 03:15 25.10898 51.66981 2899 ft 186 kts 340°
2026-05-05 03:15 25.12073 51.66465 2660 ft 177 kts 340°
2026-05-05 03:16 25.13176 51.65980 2446 ft 164 kts 341°
2026-05-05 03:16 25.14200 51.65530 2253 ft 154 kts 341°
2026-05-05 03:16 25.15179 51.65100 2062 ft 149 kts 341°
2026-05-05 03:16 25.16118 51.64687 1884 ft 142 kts 341°
2026-05-05 03:17 25.17028 51.64287 1712 ft 140 kts 341°
2026-05-05 03:17 25.17926 51.63893 1538 ft 138 kts 342°
2026-05-05 03:17 25.18819 51.63500 1360 ft 138 kts 342°
2026-05-05 03:17 25.19713 51.63107 1189 ft 138 kts 341°
2026-05-05 03:18 25.20609 51.62713 1012 ft 139 kts 340°
2026-05-05 03:18 25.21511 51.62316 850 ft 140 kts 340°
2026-05-05 03:18 25.22421 51.61916 694 ft 141 kts 339°
2026-05-05 03:18 25.23336 51.61513 520 ft 142 kts 338°
2026-05-05 03:19 25.25187 51.60698 150 ft 144 kts 337°
2026-05-05 03:19 25.26085 51.60300 23 ft 124 kts 339°
2026-05-05 03:19 25.26715 51.60014 19 ft 73 kts 337°
2026-05-05 03:20 25.27023 51.59878 19 ft 25 kts 348°
2026-05-05 03:20 25.27186 51.59830 20 ft 25 kts 346°
2026-05-05 03:20 25.27363 51.59823 20 ft 27 kts
2026-05-05 03:20 25.27432 51.59895 20 ft 6 kts 122°
2026-05-05 03:21 25.27380 51.59935 20 ft 14 kts 157°
2026-05-05 03:21 25.27251 51.59990 20 ft 27 kts 159°
2026-05-05 03:21 25.27050 51.60083 20 ft 28 kts 155°
2026-05-05 03:21 25.26963 51.60227 21 ft 21 kts 53°
2026-05-05 03:22 25.26986 51.60327 21 ft 7 kts 145°
2026-05-05 03:22 25.26930 51.60349 20 ft 13 kts 158°
2026-05-05 03:22 25.26817 51.60397 20 ft 22 kts 159°
2026-05-05 03:22 25.26669 51.60465 20 ft 21 kts 149°
2026-05-05 03:23 25.26668 51.60549 20 ft 7 kts 57°